This demonstration page uses our WeatherBlox Daily Observations layout. Learn more.

Left ArrowRight Arrow

34.02893, -84.19858

Hourly Observations for December 3, 2018

Temp ( °F °C ) Dew Point ( °F °C ) Humidity (%) Winds ( mph kmh ) Pressure ( in mb ) Visibility ( mi km ) Precip ( " mm )
12:53 am 00:53 Clear 45 7.2 44 6.7 97 97 Calm 29.86 1011 9 14 0.00 0.00
1:53 am 01:53 Clear with Mist and Fog 43 6.1 42 5.6 97 97 Calm 29.87 1012 5 8 0.00 0.00
2:53 am 02:53 Clear 43 6.1 42 5.6 97 97 Calm 29.87 1012 9 14 0.00 0.00
3:53 am 03:53 Clear 42 5.6 41 5 96 96 Calm 29.88 1012 7 11 0.00 0.00
4:53 am 04:53 Partly Cloudy 43 6.1 42 5.6 97 97 Calm 29.87 1012 10 16 0.00 0.00
6:53 am 06:53 Mostly Clear 45 7.2 43 6.1 93 93 Calm 29.91 1013 10 16 0.00 0.00
7:53 am 07:53 Mostly Cloudy 47 8.3 43 6.1 86 86 SSW 3 6 29.93 1014 10 16 0.00 0.00
8:53 am 08:53 Sunny 51 10.6 45 7.2 80 80 Calm 29.94 1014 10 16 0.00 0.00
9:53 am 09:53 Mostly Sunny 57 13.9 38 3.3 49 49 NNW 13 20 29.96 1014 10 16 0.00 0.00
10:53 am 10:53 Mostly Cloudy 56 13.3 37 2.8 49 49 NW 8 13 29.97 1015 10 16 0.00 0.00
11:53 am 11:53 Cloudy 60 15.6 36 2.2 41 41 W 7 11 29.95 1014 10 16 0.00 0.00
12:53 pm 12:53 Sunny 62 16.7 34 1.1 35 35 WNW 10 17 29.93 1014 10 16 0.00 0.00
1:53 pm 13:53 Mostly Sunny 62 16.7 32 0 32 32 WNW 10 17 29.92 1013 10 16 0.00 0.00
2:53 pm 14:53 Sunny 62 16.7 33 0.6 34 34 WSW 12 19 29.92 1013 10 16 0.00 0.00
3:53 pm 15:53 Sunny 60 15.6 31 -0.6 33 33 W 12 19 29.93 1014 10 16 0.00 0.00
4:53 pm 16:53 Sunny 57 13.9 31 -0.6 37 37 W 12 19 29.96 1015 10 16 0.00 0.00
5:53 pm 17:53 Clear 55 12.8 32 0 42 42 W 7 11 29.97 1015 10 16 0.00 0.00
6:53 pm 18:53 Clear 53 11.7 33 0.6 47 47 W 8 13 29.99 1016 10 16 0.00 0.00
7:53 pm 19:53 Clear 51 10.6 33 0.6 50 50 W 7 11 30.00 1016 10 16 0.00 0.00
8:53 pm 20:53 Clear 50 10 33 0.6 52 52 NW 9 15 30.01 1016 10 16 0.00 0.00
9:53 pm 21:53 Clear 47 8.3 33 0.6 59 59 NW 16 26 30.02 1017 10 16 0.00 0.00
10:53 pm 22:53 Clear 44 6.7 32 0 63 63 NNW 17 28 30.05 1018 10 16 0.00 0.00
11:53 pm 23:53 Clear 43 6.1 30 -1.1 60 60 NW 13 20 30.04 1017 10 16 0.00 0.00

Powered by AerisWeather